Lafayette, IN

9:14 PM EST on February 25, 2018 (GMT -0500)
Purdue Univ

Weather History for KLAF - May, 2014

Change the Weather History Date:

Thursday, May 8, 2014

  Actual Average Record
Temperature  
Mean Temperature 77 °F 59 °F  
Max Temperature 87 °F 71 °F 87 °F (1979)
Min Temperature 66 °F 48 °F 28 °F (1976)
Degree Days  
Heating Degree Days 0 7  
Month to date heating degree days 66 61  
Since 1 July heating degree days 6434 5551  
Cooling Degree Days 12 1  
Month to date cooling degree days 17 8  
Year to date cooling degree days 18 21  
Growing Degree Days 26 (Base 50)    
Moisture  
Dew Point 58 °F    
Average Humidity 54    
Maximum Humidity 73    
Minimum Humidity 38    
Precipitation  
Precipitation 0.00 in 0.13 in 1.12 in (1961)
Month to date precipitation T 1.03  
Year to date precipitation 9.04 10.86  
Sea Level Pressure  
Sea Level Pressure 29.89 in    
Wind  
Wind Speed 12 mph (SSW)    
Max Wind Speed 22 mph    
Max Gust Speed 32 mph    
Visibility 10 miles    
Events      
T = Trace of Precipitation, MM = Missing Value Source: NWS Daily Summary

Daily Weather History Graph

Daily Weather History Graph

Search for Another Location

Airport or City:

Trip Planner

Search our weather history database for the weather conditions in past years. The results will help you decide how hot, cold, wet, or windy it might be!

Date:

Astronomy

May. 08, 2014 Rise Set
Actual Time 6:38 AM EDT 8:50 PM EDT
Civil Twilight 6:08 AM EDT 9:20 PM EDT
Nautical Twilight 5:31 AM EDT 9:58 PM EDT
Astronomical Twilight 4:50 AM EDT 10:38 PM EDT
Moon 2:49 PM EDT (5/8) 3:10 AM EDT (5/8)
Length of Visible Light 15h 12m
Length of Day
14h 11m
Waxing Gibbous, 64% of the Moon is Illuminated
May 8
Waxing Gibbous
May 14
Full
May 21
Last Quarter
May 28
New
Jun 5
First Quarter

Hourly Weather History & Observations

Time (EDT) Temp. Heat Index Dew Point Humidity Pressure Visibility Wind Dir Wind Speed Gust Speed Precip Events Conditions
12:54 AM 72.0 °F - 54.0 °F 53% 29.86 in 10.0 mi South 10.4 mph 20.7 mph N/A   Clear
1:54 AM 71.1 °F - 54.0 °F 55% 29.86 in 10.0 mi South 9.2 mph - N/A   Clear
2:54 AM 70.0 °F - 55.0 °F 59% 29.87 in 10.0 mi SSW 5.8 mph - N/A   Clear
3:54 AM 69.1 °F - 55.9 °F 63% 29.87 in 10.0 mi SSW 4.6 mph - N/A   Clear
4:54 AM 70.0 °F - 57.0 °F 63% 29.88 in 10.0 mi SSW 9.2 mph - N/A   Clear
5:54 AM 66.9 °F - 57.0 °F 70% 29.89 in 10.0 mi SSW 6.9 mph - N/A   Clear
6:54 AM 66.0 °F - 57.0 °F 73% 29.91 in 10.0 mi SSW 4.6 mph - N/A   Clear
7:54 AM 66.9 °F - 57.9 °F 73% 29.93 in 10.0 mi South 6.9 mph - N/A   Clear
8:54 AM 71.1 °F - 59.0 °F 66% 29.94 in 10.0 mi SW 10.4 mph - N/A   Clear
9:54 AM 73.9 °F - 60.1 °F 62% 29.94 in 10.0 mi SSW 13.8 mph 19.6 mph N/A   Clear
10:54 AM 77.0 °F - 61.0 °F 58% 29.94 in 10.0 mi SSW 10.4 mph 21.9 mph N/A   Clear
11:54 AM 80.1 °F 80.9 °F 60.1 °F 50% 29.92 in 10.0 mi SSW 12.7 mph 19.6 mph N/A   Clear
1:54 PM 84.0 °F 83.8 °F 59.0 °F 43% 29.91 in 10.0 mi SW 17.3 mph 24.2 mph N/A   Clear
2:54 PM 86.0 °F 85.0 °F 57.9 °F 38% 29.88 in 10.0 mi SSW 11.5 mph 20.7 mph N/A   Clear
3:54 PM 86.0 °F 85.0 °F 57.9 °F 38% 29.86 in 10.0 mi South 18.4 mph 25.3 mph N/A   Clear
4:54 PM 84.9 °F 84.8 °F 60.1 °F 43% 29.85 in 10.0 mi SSW 13.8 mph 29.9 mph N/A   Clear
5:54 PM 84.9 °F 84.2 °F 57.9 °F 40% 29.86 in 10.0 mi South 16.1 mph 26.5 mph N/A   Clear
6:54 PM 82.9 °F 82.4 °F 57.0 °F 41% 29.86 in 10.0 mi SSW 17.3 mph 29.9 mph N/A   Clear
7:54 PM 81.0 °F 81.0 °F 57.0 °F 44% 29.88 in 10.0 mi SSW 12.7 mph 18.4 mph N/A   Clear
8:54 PM 79.0 °F - 57.9 °F 48% 29.88 in 10.0 mi South 11.5 mph 19.6 mph N/A   Clear
9:54 PM 77.0 °F - 59.0 °F 54% 29.89 in 10.0 mi South 12.7 mph 20.7 mph N/A   Clear
10:54 PM 75.9 °F - 60.1 °F 58% 29.89 in 10.0 mi South 11.5 mph 19.6 mph N/A   Clear
11:54 PM 75.9 °F - 61.0 °F 60% 29.88 in 10.0 mi SSW 12.7 mph 19.6 mph N/A   Clear